sat.trackr.live / text

‹ back to catalog

STARLINK-36772

NORAD 67721 · 2026-026A

PAYLOAD ACTIVE UNKNOWN

§ Identity

Operator
Country
US
Launch date
2026-02-11
Launch site
AFWTR
Launch vehicle
Mass (kg)
RCS (m²)

Purposes: comms

External: N2YO · Heavens-Above · Gunter

§ Orbital elements

Epoch: 2026-05-25T02:42:47.541600Z

Period
93.91 min
Inclination
97.2859°
Eccentricity
0.0001080
Mean motion
15.33453372 rev/d
Perigee alt
464.8 km
Apogee alt
466.3 km
Semi-major
6,843.7 km
B*
6.5718e-4
RAAN
198.5710°
Arg perigee
85.6996°
Mean anomaly
274.4370°
Rev number
1,583

§ Raw data

STARLINK-367721 67721U 26026A   26145.11305025  .00021206  00000+0  65718-3 0  99942 67721  97.2859 198.5710 0001080  85.6996 274.4370 15.33453372 15838

JSON: /api/v1/satellites/67721 · /tle

For live sub-satellite position, see the globe view (requires WebGL).

§ Visibility from observer

Set your observer location to see the next 7 days of passes ≥ 10°. The values pass through the URL so the page stays shareable.

No JS? Fill the form by hand. The geolocation button needs JavaScript.